Watsonville, CA

3:08 AM PST on November 14, 2019 (GMT -0800)
Watsonville Municipal

Weather History for KWVI - October, 2019

Change the Weather History Date:

Tuesday, October 15, 2019

  Actual Average Record
Temperature  
Mean Temperature 58 °F 60 °F  
Max Temperature 70 °F 73 °F 86 °F (2013)
Min Temperature 48 °F 49 °F 42 °F (2003)
Degree Days  
Heating Degree Days 6    
Month to date heating degree days  
Since 1 July heating degree days  
Cooling Degree Days 0    
Month to date cooling degree days  
Year to date cooling degree days  
Growing Degree Days 8 (Base 50)    
Moisture  
Dew Point 49 °F    
Average Humidity 86    
Maximum Humidity 97    
Minimum Humidity 47    
Precipitation  
Precipitation 0.00 in - 0.63 in (1972)
Month to date precipitation  
Year to date precipitation  
Sea Level Pressure  
Sea Level Pressure 30.07 in    
Wind  
Wind Speed 2 mph (SSE)    
Max Wind Speed 9 mph    
Max Gust Speed -    
Visibility 5 miles    
Events Fog    
T = Trace of Precipitation, MM = Missing Value Source: NWS Daily Summary

Daily Weather History Graph

Daily Weather History Graph

Search for Another Location

Airport or City:

Astronomy

Oct. 15, 2019 Rise Set
Actual Time 7:14 AM PDT 6:30 PM PDT
Civil Twilight 6:48 AM PDT 6:56 PM PDT
Nautical Twilight 6:18 AM PDT 7:26 PM PDT
Astronomical Twilight 5:48 AM PDT 7:56 PM PDT
Moon 7:55 PM PDT (10/15) 8:49 AM PDT (10/15)
Length of Visible Light 12h 08m
Length of Day
11h 15m
Waning Gibbous, 97% of the Moon is Illuminated
Oct 15
Waning Gibbous
Oct 21
Last Quarter
Oct 27
New
Nov 4
First Quarter
Nov 12
Full

Hourly Weather History & Observations

Time (PDT) Temp. Dew Point Humidity Pressure Visibility Wind Dir Wind Speed Gust Speed Precip Events Conditions
12:10 AM 53.1 °F 50.0 °F 89% 30.04 in 7.0 mi Calm Calm - N/A   Overcast
12:32 AM 52.0 °F 50.0 °F 93% 30.04 in 5.0 mi Calm Calm - N/A   Overcast
12:53 AM 52.0 °F 50.0 °F 93% 30.04 in 5.0 mi Calm Calm - N/A   Overcast
1:30 AM 51.1 °F 48.9 °F 92% 30.05 in 1.8 mi NW 4.6 mph - N/A   Overcast
1:39 AM 50.0 °F 48.0 °F 93% 30.05 in 1.0 mi NNW 3.5 mph - N/A   Mist
1:53 AM 50.0 °F 48.0 °F 93% 30.05 in 0.8 mi NW 3.5 mph - N/A   Mist
2:53 AM 50.0 °F 48.0 °F 93% 30.06 in 0.5 mi Calm Calm - N/A Fog Fog
3:53 AM 48.9 °F 48.0 °F 97% 30.06 in 0.5 mi NNW 3.5 mph - N/A Fog Fog
4:12 AM 48.9 °F 46.9 °F 93% 30.06 in 1.0 mi Calm Calm - N/A   Mist
4:27 AM 48.0 °F 46.0 °F 93% 30.06 in 0.8 mi Variable 3.5 mph - N/A   Mist
4:53 AM 48.0 °F 46.9 °F 96% 30.07 in 0.8 mi Calm Calm - N/A   Mist
5:19 AM 48.0 °F 46.9 °F 96% 30.07 in 1.0 mi North 3.5 mph - N/A   Mist
5:34 AM 48.9 °F 46.9 °F 93% 30.08 in 0.8 mi Calm Calm - N/A   Mist
5:53 AM 48.9 °F 48.0 °F 97% 30.07 in 1.2 mi Calm Calm - N/A   Overcast
6:03 AM 48.9 °F 48.0 °F 97% 30.07 in 2.0 mi ESE 3.5 mph - N/A   Overcast
6:51 AM 48.2 °F 46.4 °F 93% 30.09 in 1.0 mi Calm Calm - N/A   Mist
6:53 AM 48.9 °F 46.9 °F 93% 30.09 in 1.0 mi Calm Calm - N/A   Mist
7:15 AM 48.0 °F 46.9 °F 96% 30.09 in 0.5 mi Calm Calm - N/A Fog Fog
7:38 AM 48.0 °F 46.9 °F 96% 30.09 in 0.2 mi Calm Calm - N/A Fog Fog
7:53 AM 48.0 °F 46.9 °F 96% 30.09 in 0.2 mi Calm Calm - N/A Fog Fog
8:53 AM 48.9 °F 48.0 °F 97% 30.12 in 0.2 mi Calm Calm - N/A Fog Fog
9:08 AM 50.0 °F 48.0 °F 93% 30.12 in 0.5 mi Calm Calm - N/A Fog Fog
9:25 AM 50.0 °F 48.0 °F 93% 30.12 in 1.5 mi Calm Calm - N/A   Overcast
9:33 AM 50.0 °F 46.9 °F 89% 30.12 in 2.5 mi Calm Calm - N/A   Overcast
9:43 AM 50.0 °F 48.0 °F 93% 30.12 in 5.0 mi Calm Calm - N/A   Overcast
9:53 AM 51.1 °F 48.0 °F 89% 30.12 in 6.0 mi Calm Calm - N/A   Overcast
10:15 AM 53.1 °F 48.0 °F 83% 30.13 in 7.0 mi South 3.5 mph - N/A   Overcast
10:33 AM 54.0 °F 48.9 °F 83% 30.13 in 8.0 mi Calm Calm - N/A   Overcast
10:53 AM 57.0 °F 48.9 °F 74% 30.13 in 9.0 mi Calm Calm - N/A   Mostly Cloudy
11:04 AM 57.9 °F 48.9 °F 72% 30.13 in 10.0 mi SW 4.6 mph - N/A   Scattered Clouds
11:53 AM 60.1 °F 48.9 °F 67% 30.12 in 10.0 mi Variable 4.6 mph - N/A   Clear
12:53 PM 64.0 °F 48.9 °F 58% 30.08 in 10.0 mi SSW 4.6 mph - N/A   Clear
1:53 PM 66.0 °F 50.0 °F 56% 30.05 in 10.0 mi South 6.9 mph - N/A   Clear
2:53 PM 68.0 °F 51.1 °F 55% 30.03 in 10.0 mi South 6.9 mph - N/A   Clear
3:53 PM 69.1 °F 51.1 °F 53% 30.02 in 10.0 mi SSW 4.6 mph - N/A   Clear
4:53 PM 66.9 °F 46.0 °F 47% 30.02 in 10.0 mi SW 9.2 mph - N/A   Clear
5:53 PM 62.1 °F 50.0 °F 65% 30.02 in 10.0 mi SW 5.8 mph - N/A   Clear
6:53 PM 55.0 °F 50.0 °F 83% 30.03 in 10.0 mi ESE 3.5 mph - N/A   Clear
7:53 PM 54.0 °F 51.1 °F 90% 30.04 in 10.0 mi SSE 6.9 mph - N/A   Clear
8:06 PM 54.0 °F 51.1 °F 90% 30.04 in 10.0 mi SE 4.6 mph - N/A   Partly Cloudy
8:53 PM 54.0 °F 51.1 °F 90% 30.05 in 10.0 mi East 3.5 mph - N/A   Clear
9:05 PM 54.0 °F 51.1 °F 90% 30.05 in 10.0 mi ESE 4.6 mph - N/A   Scattered Clouds
9:19 PM 54.0 °F 51.1 °F 90% 30.04 in 10.0 mi East 4.6 mph - N/A   Mostly Cloudy
9:38 PM 54.0 °F 51.1 °F 90% 30.04 in 10.0 mi Calm Calm - N/A   Overcast
9:53 PM 54.0 °F 51.1 °F 90% 30.05 in 10.0 mi Calm Calm - N/A   Mostly Cloudy
10:50 PM 53.6 °F 51.8 °F 94% 30.04 in 6.0 mi Calm Calm - N/A   Overcast
10:53 PM 54.0 °F 51.1 °F 90% 30.04 in 6.0 mi Calm Calm - N/A   Overcast
11:53 PM 53.1 °F 51.1 °F 93% 30.04 in 2.5 mi NNE 3.5 mph - N/A   Overcast
11:58 PM 53.1 °F 51.1 °F 93% 30.04 in 1.2 mi Calm Calm - N/A   Overcast